Showing default

QIANFAN-53, 62254

Orbit data source: Space-Track

QIANFAN-53, 62254 is a Chinese payload satellite in LEO that was launched on Thu, 05 Dec 2024 UTC via a CHANG ZHENG 6A launch vehicle from the Taiyaun Space Center, China (TSC). Payload-class satellites include a variety of spacecraft equipped with specific instruments for various scientific and technological missions. These include communications satellites like Starlink; space stations such as the ISS; scientific satellites like the Hubble; Earth observation satellites from companies like Planet Labs, Umbra, and HawkEye 360; GPS; miniature CubeSats for education and research; and military/defense satellites.

Loading next visibility...
Identifier
62254, 2024-232T
Orbit
LEO
Country
Flag of CNCN / PRC
Related business
Manufacturer
SECM
Mission
Operational Commercial Communications
Bus & Motor
QIANFAN, Unknown motor
Mass
267 kg wet, ~267 kg dry
Launch date (UTC)
2024-12-05 (2 years ago)
Launch vehicle
CHANG ZHENG 6A
Launch site
Taiyaun Space Center, China (TSC)
Object type
Payload
Rocket body
Debris
Shape & HBR
Box + 1 Pan, 5.0 m
Radar Cross Section
13.200 m², Large (>1 m²)

Expand to show TLE details & history
Last TLE update: 9 hours ago

TLE from 9 hours ago
0 QIANFAN-53
1 62254U 24232T   26246.85421776  .00000075  00000-0  96717-4 0  9998
2 62254  89.0145  14.6080 0015620 142.6287 217.5953 13.51025394103707
Epoch: 2026-09-03T20:30Z
TLE epoch observation values (Epoch: 2026-09-03T20:30:04.414Z)
Latitude
-0.0001°
Longitude
84.10318°
Altitude
1,080.666 km
Speed
7.307 km/s
True Right ascension
00h 58m 25s
True Declination
0° 00' 00"
Sunlit
Object was in full shadow at epoch
Visualization orbit readout
Latitude
Unknown
Longitude
Unknown
Altitude
Unknown
Speed
Unknown
Apparent Right ascension
Unknown
Apparent Declination
Unknown
Sunlit
N/A
Visualization observer readout
Local Sidereal Time
20:54:01
Azimuth
Unknown
Elevation
Unknown
Doppler factor
Unknown
Orbital elements
Apogee altitude
1,077.166 km
Perigee altitude
1,053.912 km
Semi-major axis
7,443.676 km
Eccentricity
0.00156
Inclination
89.0145°
RAAN
14.608°
Arg. of periapsis
142.6287°
True anomaly
217.48627°
Mean anomaly
217.5953°
Eccentric anomaly
217.54077°
Mean motion
3.37957 °/min
Orbital period
106.52 mins
BSTAR
0.000096717
Loading maneuver chart data...
Computing Atmospheric mass density...
Loading historical data...
Loading historical data...
Loading historical data...
Loading historical data...
Loading historical data...
Loading historical data...
Loading historical data...

Documentation

Showing up to 5 results
|